Total_Precipitation_Accumulation
1.29 1.26 1.21 1.27 1.15 1.05 1.11 1.20 1.27 1.32 1.23 1.09 1.05 1.06 1.15 1.09 1.11 1.27 1.63 2.15 2.70 3.19 3.44 3.37 3.26 3.13 3.11 3.10 3.27 3.44 3.60 3.76 3.60 3.41 3.23 3.03 3.10 3.16 2.82 2.78 2.94 3.21 3.53
1.32 1.37 1.32 1.25 1.19 1.10 1.12 1.30 1.29 1.32 1.31 1.25 1.09 1.11 1.14 1.10 1.11 1.15 1.31 1.70 2.11 2.63 3.26 3.64 3.46 3.15 2.93 2.92 2.93 3.08 3.35 3.43 3.11 3.00 3.02 3.07 3.23 3.33 2.95 2.79 2.77 2.81 3.11
1.17 1.24 1.27 1.21 1.18 1.19 1.21 1.26 1.32 1.40 1.33 1.24 1.19 1.17 1.14 1.09 1.05 1.10 1.06 1.21 1.38 1.86 2.49 3.01 3.29 3.28 3.13 2.99 2.93 3.07 3.26 3.14 2.84 2.91 3.06 3.08 3.10 3.16 3.11 2.93 2.74 2.67 2.84
1.24 1.23 1.27 1.26 1.28 1.31 1.31 1.35 1.43 1.44 1.41 1.38 1.33 1.28 1.15 1.12 1.08 1.08 1.02 1.02 1.11 1.20 1.55 2.00 2.47 2.88 3.10 3.16 3.32 3.49 3.32 2.97 2.70 2.68 2.85 2.74 2.67 2.77 2.89 2.87 2.65 2.50 2.43
1.33 1.45 1.48 1.48 1.43 1.46 1.47 1.42 1.45 1.38 1.38 1.39 1.30 1.32 1.26 1.22 1.16 1.03 1.06 1.03 1.05 1.04 1.17 1.33 1.59 1.90 2.28 2.74 3.33 3.65 3.24 2.93 2.73 2.53 2.48 2.42 2.45 2.56 2.58 2.45 2.35 2.24 2.23
1.60 1.78 1.85 1.75 1.71 1.70 1.69 1.63 1.67 1.57 1.46 1.49 1.36 1.34 1.30 1.21 1.24 1.21 1.19 1.12 1.16 1.12 1.12 1.14 1.22 1.21 1.43 1.96 2.75 3.25 3.17 2.97 2.77 2.63 2.44 2.36 2.46 2.56 2.51 2.40 2.33 2.33 2.35
1.92 2.06 1.97 2.05 2.06 1.93 1.92 1.98 2.02 1.99 1.80 1.65 1.70 1.59 1.34 1.15 1.23 1.19 1.20 1.25 1.26 1.34 1.35 1.24 1.23 1.23 1.18 1.40 2.01 2.72 3.02 2.96 2.95 2.78 2.64 2.54 2.46 2.48 2.47 2.42 2.40 2.42 2.53
2.13 2.16 2.23 2.33 2.35 2.36 2.29 2.18 2.30 2.46 2.18 1.94 2.07 2.35 1.96 1.61 1.25 1.03 1.14 1.23 1.29 1.51 1.55 1.34 1.18 1.17 1.23 1.37 1.37 1.81 2.28 2.66 2.90 2.95 2.85 2.72 2.61 2.61 2.67 2.52 2.40 2.48 2.53
2.35 2.37 2.42 2.49 2.50 2.36 2.36 2.47 2.60 2.95 2.75 2.37 2.17 2.47 2.32 2.01 1.71 1.26 1.14 1.23 1.32 1.46 1.55 1.59 1.48 1.38 1.31 1.38 1.40 1.27 1.51 2.01 2.49 2.88 2.96 2.92 2.77 2.98 3.15 2.89 2.54 2.40 2.26
2.33 2.42 2.42 2.39 2.36 2.31 2.38 2.45 2.51 2.94 3.16 2.87 2.51 2.09 1.87 1.86 1.99 1.72 1.29 1.24 1.34 1.35 1.43 1.51 1.48 1.56 1.50 1.53 1.57 1.35 1.26 1.60 2.06 2.61 3.01 3.32 3.13 2.93 2.90 2.99 2.80 2.45 2.20
2.23 2.23 2.22 2.31 2.31 2.33 2.40 2.58 2.71 2.99 3.04 3.05 2.86 2.61 2.37 2.06 1.74 1.85 1.81 1.53 1.46 1.35 1.41 1.52 1.56 1.68 1.71 1.74 1.91 1.67 1.39 1.31 1.57 2.09 2.70 3.29 3.50 3.22 2.88 2.82 2.78 2.60 2.30
2.18 2.09 2.03 2.11 2.23 2.36 2.41 2.50 2.68 2.95 3.09 3.19 3.09 2.79 2.69 2.53 2.26 2.15 1.92 1.78 1.74 1.49 1.42 1.47 1.51 1.65 1.83 1.90 1.88 2.03 1.68 1.29 1.26 1.60 1.98 2.61 3.32 3.48 3.26 3.12 3.04 2.95 2.70
1.86 1.90 1.95 2.03 2.17 2.26 2.33 2.45 2.59 2.67 2.81 3.08 3.10 2.92 2.69 2.51 2.50 2.37 2.27 1.97 1.77 1.52 1.47 1.49 1.47 1.53 1.57 1.85 1.97 2.08 1.73 1.37 1.17 1.24 1.45 1.80 2.34 2.90 3.19 3.18 3.17 3.31 3.33
1.76 1.70 1.73 1.80 2.01 2.21 2.28 2.39 2.40 2.40 2.47 2.67 2.69 2.76 2.72 2.47 2.42 2.34 2.35 2.48 2.17 1.88 1.68 1.48 1.41 1.46 1.50 1.69 2.00 2.09 1.63 1.47 1.25 1.16 1.19 1.40 1.62 1.85 2.29 2.81 3.13 3.34 3.56
1.54 1.48 1.53 1.55 1.67 1.88 2.12 2.27 2.24 2.17 2.15 2.32 2.39 2.50 2.64 2.68 2.57 2.48 2.46 2.58 2.57 2.29 2.02 1.75 1.55 1.43 1.49 1.59 1.99 1.90 1.65 1.56 1.48 1.29 1.15 1.20 1.28 1.42 1.60 1.97 2.28 2.52 2.71
1.37 1.30 1.31 1.42 1.59 1.68 1.85 2.06 2.14 2.08 2.09 2.19 2.31 2.44 2.59 2.74 2.76 2.54 2.51 2.52 2.42 2.39 2.22 1.82 1.56 1.48 1.55 1.52 1.89 1.88 1.79 1.83 1.60 1.46 1.37 1.29 1.33 1.32 1.36 1.53 1.61 1.74 1.75
1.21 1.21 1.35 1.43 1.50 1.58 1.76 2.00 2.15 2.16 2.09 2.10 2.09 2.18 2.38 2.50 2.72 2.67 2.57 2.51 2.40 2.29 2.19 1.96 1.71 1.56 1.63 1.67 1.78 1.90 1.87 1.77 1.58 1.57 1.42 1.31 1.30 1.33 1.33 1.39 1.51 1.51 1.45
0.95 1.07 1.20 1.25 1.29 1.32 1.51 1.81 2.01 2.06 2.03 1.92 1.87 1.98 2.21 2.39 2.62 2.73 2.68 2.56 2.49 2.36 2.27 2.25 2.07 1.84 1.73 1.74 1.90 2.01 1.96 1.88 1.81 1.83 1.68 1.49 1.41 1.36 1.34 1.32 1.38 1.51 1.51
0.98 1.08 1.14 1.19 1.23 1.29 1.33 1.46 1.66 1.79 1.79 1.72 1.71 1.74 1.77 1.96 2.26 2.46 2.48 2.54 2.58 2.56 2.56 2.44 2.27 2.17 2.03 1.83 1.95 2.04 2.03 2.04 1.93 2.00 1.98 1.85 1.73 1.60 1.49 1.43 1.40 1.44 1.51
0.99 1.06 1.09 1.16 1.25 1.30 1.31 1.34 1.37 1.43 1.48 1.56 1.59 1.58 1.62 1.66 1.90 2.11 2.20 2.38 2.61 2.66 2.73 2.69 2.45 2.31 2.23 2.01 2.07 2.19 2.28 2.22 2.13 2.00 2.04 1.94 1.91 1.81 1.67 1.54 1.45 1.40 1.41
0.92 1.00 1.05 1.06 1.12 1.21 1.32 1.38 1.26 1.23 1.31 1.41 1.39 1.33 1.36 1.52 1.74 1.87 1.85 2.13 2.49 2.70 2.74 2.72 2.57 2.52 2.29 2.10 1.96 1.93 2.11 2.35 2.37 2.31 2.24 1.99 1.89 1.75 1.72 1.73 1.56 1.40 1.39
0.90 0.94 0.90 0.92 1.01 1.04 1.31 1.35 1.18 1.11 1.15 1.25 1.33 1.31 1.20 1.22 1.34 1.47 1.52 1.65 1.91 2.14 2.48 2.70 2.64 2.53 2.23 2.06 2.01 1.98 2.01 2.13 2.32 2.27 2.29 2.31 2.23 2.13 2.01 1.90 1.89 1.74 1.62
0.88 0.89 0.86 0.86 0.89 1.02 1.16 1.06 1.09 1.03 1.07 1.13 1.22 1.31 1.22 1.12 1.27 1.31 1.43 1.51 1.46 1.52 1.84 2.23 2.41 2.42 2.40 2.27 2.20 2.05 2.00 2.04 2.09 2.15 2.33 2.39 2.35 2.34 2.25 2.25 2.34 2.14 1.94
0.86 0.87 0.91 0.91 0.90 0.97 1.02 0.93 1.03 0.98 0.96 1.02 1.15 1.26 1.31 1.25 1.30 1.43 1.39 1.39 1.31 1.28 1.53 1.56 1.79 2.18 2.35 2.43 2.34 2.34 2.47 2.41 2.22 2.12 2.16 2.22 2.11 2.14 2.19 2.21 2.38 2.28 2.13
0.87 0.92 0.97 0.97 0.89 0.89 1.00 0.94 0.98 0.94 0.94 0.97 0.99 1.08 1.18 1.15 1.40 1.55 1.43 1.53 1.51 1.39 1.59 1.71 1.78 1.88 2.08 2.28 2.34 2.30 2.32 2.38 2.32 2.20 2.02 1.92 1.83 1.87 1.99 2.02 2.04 2.14 2.12
0.69 0.83 0.87 0.89 0.90 0.88 1.12 1.08 1.05 0.93 0.94 1.02 1.05 1.02 1.21 1.25 1.43 1.44 1.29 1.48 1.53 1.48 1.46 1.52 1.51 1.54 1.50 1.69 1.98 2.04 2.22 2.27 2.19 2.09 1.82 1.73 1.69 1.77 1.87 1.70 1.53 1.53 1.56